Change the Weather History Date:

Monday, February 27, 2012

  Actual Average Record
Temperature  
Mean Temperature 32 °F -  
Max Temperature 46 °F 37 °F 56 °F (1976)
Min Temperature 17 °F 13 °F -19 °F (1940)
Degree Days  
Heating Degree Days 34    
Moisture  
Dew Point 20 °F    
Average Humidity 63    
Maximum Humidity 86    
Minimum Humidity 42    
Precipitation  
Precipitation 0.00 in - - ()
Sea Level Pressure  
Sea Level Pressure 30.23 in    
Wind  
Wind Speed 3 mph (South)    
Max Wind Speed 14 mph    
Max Gust Speed 18 mph    
Visibility 10 miles    
Events      
Averages and records for this station are not official NWS values.
T = Trace of Precipitation, MM = Missing Value Source: NWS Daily Summary

Daily Weather History Graph

Daily Weather History Graph

Search for Another Location

Airport or City:

Trip Planner

Search our weather history database for the weather conditions in past years. The results will help you decide how hot, cold, wet, or windy it might be!

Date:

Astronomy

Feb. 27, 2012 Rise Set
Actual Time 6:29 AM EST 5:35 PM EST
Civil Twilight 6:00 AM EST 6:03 PM EST
Nautical Twilight 5:27 AM EST 6:36 PM EST
Astronomical Twilight 4:55 AM EST 7:09 PM EST
Moon 8:46 AM EST (2/27) 11:36 PM EST (2/27)
Length of Visible Light 12h 03m
Length of Day
11h 06m
Waxing Crescent, 29% of the Moon is Illuminated
Feb 27
Waxing Crescent
Feb 29
First Quarter
Mar 8
Full
Mar 14
Last Quarter
Mar 22
New

Hourly Weather History & Observations

Time (EST) Temp. Windchill Dew Point Humidity Pressure Visibility Wind Dir Wind Speed Gust Speed Precip Events Conditions
12:15 AM 24.8 °F 20.5 °F 12.2 °F 59% 30.41 in 10.0 mi SSW 3.5 mph - N/A   Clear
12:55 AM 23.0 °F - 12.2 °F 63% 30.42 in 10.0 mi Calm Calm - N/A   Clear
1:15 AM 23.0 °F - 12.2 °F 63% 30.41 in 10.0 mi Calm Calm - N/A   Clear
1:35 AM 21.2 °F - 12.2 °F 68% 30.41 in 10.0 mi Calm Calm - N/A   Clear
1:55 AM 21.2 °F - 12.2 °F 68% 30.41 in 10.0 mi Calm Calm - N/A   Clear
2:15 AM 21.2 °F - 12.2 °F 68% 30.40 in 10.0 mi Calm Calm - N/A   Clear
2:35 AM 19.4 °F - 12.2 °F 74% 30.41 in 10.0 mi Calm Calm - N/A   Clear
2:55 AM 19.4 °F - 14.0 °F 80% 30.40 in 10.0 mi Calm Calm - N/A   Clear
3:35 AM 19.4 °F - 14.0 °F 80% 30.40 in 10.0 mi Calm Calm - N/A   Clear
3:55 AM 19.4 °F - 12.2 °F 74% 30.41 in 10.0 mi Calm Calm - N/A   Clear
4:15 AM 19.4 °F - 14.0 °F 80% 30.40 in 10.0 mi Calm Calm - N/A   Clear
4:35 AM 19.4 °F - 14.0 °F 80% 30.40 in 10.0 mi Calm Calm - N/A   Clear
4:55 AM 17.6 °F - 14.0 °F 86% 30.40 in 10.0 mi Calm Calm - N/A   Clear
5:15 AM 17.6 °F - 14.0 °F 86% 30.41 in 10.0 mi Calm Calm - N/A   Clear
5:55 AM 17.6 °F - 14.0 °F 86% 30.40 in 10.0 mi Calm Calm - N/A   Clear
6:15 AM 17.6 °F - 12.2 °F 79% 30.40 in 10.0 mi Calm Calm - N/A   Clear
6:35 AM 17.6 °F - 12.2 °F 79% 30.40 in 10.0 mi Calm Calm - N/A   Clear
6:55 AM 17.6 °F - 14.0 °F 86% 30.40 in 10.0 mi Calm Calm - N/A   Clear
7:15 AM 17.6 °F - 12.2 °F 79% 30.39 in 10.0 mi Calm Calm - N/A   Clear
7:55 AM 19.4 °F - 15.8 °F 86% 30.39 in 10.0 mi Calm Calm - N/A   Overcast
8:35 AM 23.0 °F - 15.8 °F 74% 30.37 in 10.0 mi Calm Calm - N/A   Mostly Cloudy
8:55 AM 24.8 °F - 15.8 °F 69% 30.35 in 10.0 mi Calm Calm - N/A   Mostly Cloudy
9:15 AM 26.6 °F - 17.6 °F 69% 30.34 in 10.0 mi Calm Calm - N/A   Partly Cloudy
9:35 AM 28.4 °F - 17.6 °F 64% 30.33 in 10.0 mi Calm Calm - N/A   Scattered Clouds
9:55 AM 30.2 °F 25.4 °F 17.6 °F 60% 30.30 in 10.0 mi West 4.6 mph - N/A   Mostly Cloudy
10:15 AM 32.0 °F 26.4 °F 15.8 °F 51% 30.30 in 10.0 mi WNW 5.8 mph - N/A   Scattered Clouds
10:35 AM 33.8 °F - 17.6 °F 52% 30.29 in 10.0 mi Calm Calm - N/A   Partly Cloudy
11:15 AM 39.2 °F 32.0 °F 19.4 °F 45% 30.25 in 10.0 mi South 11.5 mph - N/A   Mostly Cloudy
11:35 AM 39.2 °F 31.6 °F 19.4 °F 45% 30.23 in 10.0 mi SSW 12.7 mph - N/A   Mostly Cloudy
11:55 AM 41.0 °F 33.5 °F 21.2 °F 45% 30.22 in 10.0 mi South 13.8 mph 17.3 mph N/A   Mostly Cloudy
12:15 PM 41.0 °F 34.3 °F 21.2 °F 45% 30.21 in 10.0 mi South 11.5 mph - N/A   Mostly Cloudy
12:35 PM 41.0 °F 34.7 °F 19.4 °F 42% 30.20 in 10.0 mi SSW 10.4 mph 18.4 mph N/A   Overcast
12:55 PM 42.8 °F 36.2 °F 21.2 °F 42% 30.17 in 10.0 mi South 12.7 mph - N/A   Overcast
1:15 PM 42.8 °F 36.6 °F 21.2 °F 42% 30.15 in 10.0 mi South 11.5 mph - N/A   Overcast
1:35 PM 42.8 °F 37.5 °F 21.2 °F 42% 30.15 in 10.0 mi South 9.2 mph - N/A   Overcast
2:15 PM 44.6 °F 39.2 °F 23.0 °F 43% 30.11 in 10.0 mi South 10.4 mph - N/A   Scattered Clouds
2:35 PM 44.6 °F 39.7 °F 24.8 °F 46% 30.09 in 10.0 mi South 9.2 mph - N/A   Mostly Cloudy
2:55 PM 46.4 °F 41.5 °F 24.8 °F 43% 30.07 in 10.0 mi South 10.4 mph 17.3 mph N/A   Mostly Cloudy
3:15 PM 46.4 °F 42.4 °F 26.6 °F 46% 30.07 in 10.0 mi South 8.1 mph - N/A   Mostly Cloudy
3:35 PM 46.4 °F 40.7 °F 26.6 °F 46% 30.06 in 10.0 mi South 12.7 mph 18.4 mph N/A   Mostly Cloudy
3:55 PM 46.4 °F 41.9 °F 26.6 °F 46% 30.05 in 10.0 mi South 9.2 mph - N/A   Partly Cloudy
4:15 PM 46.4 °F 41.5 °F 26.6 °F 46% 30.03 in 10.0 mi South 10.4 mph 16.1 mph N/A   Mostly Cloudy
4:35 PM 46.4 °F 42.9 °F 26.6 °F 46% 30.03 in 10.0 mi South 6.9 mph - N/A   Mostly Cloudy
5:15 PM 44.6 °F 41.4 °F 26.6 °F 49% 30.03 in 10.0 mi South 5.8 mph - N/A   Mostly Cloudy
5:35 PM 42.8 °F 39.3 °F 28.4 °F 57% 30.03 in 10.0 mi South 5.8 mph - N/A   Mostly Cloudy
5:55 PM 42.8 °F 39.3 °F 28.4 °F 57% 30.04 in 10.0 mi SSW 5.8 mph - N/A   Mostly Cloudy
6:15 PM 42.8 °F 38.0 °F 28.4 °F 57% 30.04 in 10.0 mi South 8.1 mph - N/A   Overcast
6:35 PM 42.8 °F 38.0 °F 30.2 °F 61% 30.05 in 10.0 mi SSW 8.1 mph - N/A   Mostly Cloudy
6:55 PM 42.8 °F 37.5 °F 28.4 °F 57% 30.04 in 10.0 mi South 9.2 mph - N/A   Mostly Cloudy
7:15 PM 41.0 °F 36.4 °F 28.4 °F 61% 30.04 in 10.0 mi South 6.9 mph - N/A   Clear
7:35 PM 37.4 °F - 28.4 °F 70% 30.03 in 10.0 mi Calm Calm - N/A   Clear
8:15 PM 35.6 °F - 28.4 °F 75% 30.03 in 10.0 mi Calm Calm - N/A   Scattered Clouds
8:35 PM 35.6 °F - 30.2 °F 81% 30.03 in 10.0 mi Calm Calm - N/A   Scattered Clouds
8:55 PM 35.6 °F 29.9 °F 28.4 °F 75% 30.04 in 10.0 mi North 6.9 mph - N/A   Mostly Cloudy
9:15 PM 37.4 °F - 28.4 °F 70% 30.05 in 10.0 mi Calm Calm - N/A   Mostly Cloudy
9:35 PM 37.4 °F 32.1 °F 30.2 °F 75% 30.03 in 10.0 mi SSE 6.9 mph - N/A   Scattered Clouds
9:55 PM 37.4 °F 32.8 °F 30.2 °F 75% 30.03 in 10.0 mi SSW 5.8 mph - N/A   Mostly Cloudy
10:35 PM 37.4 °F 32.8 °F 30.2 °F 75% 30.03 in 10.0 mi South 5.8 mph - N/A   Mostly Cloudy
10:55 PM 39.2 °F 35.9 °F 30.2 °F 70% 30.04 in 10.0 mi SSW 4.6 mph - N/A   Mostly Cloudy
11:15 PM 42.8 °F 39.3 °F 26.6 °F 53% 30.05 in 10.0 mi WSW 5.8 mph - N/A   Mostly Cloudy
11:35 PM 42.8 °F 38.6 °F 26.6 °F 53% 30.05 in 10.0 mi West 6.9 mph - N/A   Overcast
11:55 PM 42.8 °F 38.0 °F 26.6 °F 53% 30.06 in 10.0 mi WSW 8.1 mph - N/A   Overcast